When you browse on this site, cookies collect data to enhance your experience and personalize the content and advertising you see.
Visit our Privacy Policy to learn more. By continuing to use the site, you agree to this use of cookies and data.
  • In Österreich
  • Länderverzeichnis
  • Für 7 Tage
  • Wassertemperatur
  • Satellitenkarten
  • Wetterkarte
  • News
  • Widgets
  • user-avatar
    Anmelden

    Stündliche Wetter Korçe

    Heute, 21 Juli, Sonntag

    Zeit Temperatur Niederschläge Wind Luftdruck Luftfeuchtigkeit
    00:00 +16°C° 0 mm 1 m/S 670 mmHg 71%
    01:00 +16°C° 0 mm 1 m/S 670 mmHg 72%
    02:00 +16°C° 0 mm 1 m/S 670 mmHg 72%
    03:00 +16°C° 0 mm 1 m/S 669 mmHg 72%
    04:00 +16°C° 0 mm 1 m/S 669 mmHg 71%
    05:00 +19°C° 0 mm 1 m/S 670 mmHg 67%
    06:00 +20°C° 0 mm 1 m/S 671 mmHg 63%
    07:00 +22°C° 0 mm 1 m/S 671 mmHg 58%
    08:00 +24°C° 0 mm 1 m/S 672 mmHg 52%
    09:00 +26°C° 0 mm 1 m/S 672 mmHg 47%
    10:00 +25°C° 0 mm 0 m/S 673 mmHg 41%
    11:00 +28°C° 0 mm 1 m/S 673 mmHg 40%
    12:00 +28°C° 0 mm 1 m/S 672 mmHg 39%
    13:00 +28°C° 0 mm 1 m/S 672 mmHg 37%
    14:00 +28°C° 0 mm 2 m/S 672 mmHg 43%
    15:00 +27°C° 0 mm 2 m/S 672 mmHg 48%
    16:00 +26°C° 0 mm 3 m/S 671 mmHg 53%
    17:00 +24°C° 0 mm 2 m/S 671 mmHg 58%
    18:00 +23°C° 0 mm 2 m/S 671 mmHg 62%
    19:00 +20°C° 0 mm 2 m/S 670 mmHg 67%
    20:00 +19°C° 0 mm 2 m/S 670 mmHg 68%
    21:00 +20°C° 0 mm 1 m/S 670 mmHg 68%
    22:00 +19°C° 0 mm 1 m/S 670 mmHg 69%
    23:00 +19°C° 0 mm 1 m/S 670 mmHg 68%

    Morgen, 22 Juli, Montag

    Zeit Temperatur Niederschläge Wind Luftdruck Luftfeuchtigkeit
    00:00 +18°C° 0 mm 1 m/S 670 mmHg 68%
    01:00 +18°C° 0 mm 1 m/S 670 mmHg 68%
    02:00 +18°C° 0 mm 1 m/S 670 mmHg 68%
    03:00 +18°C° 0 mm 1 m/S 670 mmHg 68%
    04:00 +18°C° 0 mm 1 m/S 669 mmHg 68%
    05:00 +20°C° 0 mm 1 m/S 670 mmHg 64%
    06:00 +22°C° 0 mm 1 m/S 671 mmHg 60%
    07:00 +24°C° 0 mm 1 m/S 671 mmHg 56%
    08:00 +25°C° 0 mm 1 m/S 672 mmHg 50%
    09:00 +26°C° 0 mm 2 m/S 672 mmHg 44%
    10:00 +28°C° 0 mm 2 m/S 672 mmHg 38%
    11:00 +28°C° 0 mm 2 m/S 672 mmHg 37%
    12:00 +29°C° 0 mm 2 m/S 672 mmHg 36%
    13:00 +29°C° 0 mm 2 m/S 672 mmHg 34%
    14:00 +29°C° 0 mm 2 m/S 672 mmHg 37%
    15:00 +28°C° 0 mm 2 m/S 671 mmHg 41%
    16:00 +27°C° 0 mm 2 m/S 671 mmHg 44%
    17:00 +26°C° 0 mm 2 m/S 670 mmHg 50%
    18:00 +24°C° 0 mm 2 m/S 670 mmHg 56%
    19:00 +21°C° 0 mm 2 m/S 669 mmHg 62%
    20:00 +20°C° 0 mm 2 m/S 669 mmHg 64%
    21:00 +20°C° 0 mm 1 m/S 669 mmHg 65%
    22:00 +20°C° 0 mm 1 m/S 669 mmHg 66%
    23:00 +19°C° 0 mm 1 m/S 669 mmHg 66%

    übermorgen, 23 Juli, Dienstag

    Zeit Temperatur Niederschläge Wind Luftdruck Luftfeuchtigkeit
    00:00 +19°C° 0 mm 1 m/S 668 mmHg 66%
    01:00 +19°C° 0 mm 1 m/S 668 mmHg 66%
    02:00 +19°C° 0 mm 1 m/S 668 mmHg 67%
    03:00 +18°C° 0 mm 1 m/S 668 mmHg 68%
    04:00 +18°C° 0 mm 1 m/S 668 mmHg 69%
    05:00 +20°C° 0 mm 1 m/S 668 mmHg 67%
    06:00 +21°C° 0 mm 1 m/S 668 mmHg 64%
    07:00 +23°C° 0 mm 1 m/S 669 mmHg 62%
    08:00 +24°C° 0 mm 1 m/S 669 mmHg 57%
    09:00 +26°C° 0 mm 1 m/S 670 mmHg 51%
    10:00 +28°C° 0 mm 1 m/S 670 mmHg 46%
    11:00 +28°C° 0 mm 1 m/S 670 mmHg 44%
    12:00 +28°C° 0 mm 2 m/S 670 mmHg 43%
    13:00 +28°C° 0 mm 2 m/S 669 mmHg 41%
    14:00 +28°C° 0 mm 2 m/S 669 mmHg 44%
    15:00 +27°C° 0 mm 2 m/S 668 mmHg 47%
    16:00 +26°C° 0 mm 3 m/S 668 mmHg 50%
    17:00 +25°C° 0 mm 2 m/S 668 mmHg 52%
    18:00 +23°C° 0 mm 2 m/S 667 mmHg 54%
    19:00 +21°C° 0 mm 2 m/S 667 mmHg 56%
    20:00 +20°C° 0 mm 2 m/S 667 mmHg 58%
    21:00 +19°C° 0 mm 2 m/S 667 mmHg 60%
    22:00 +18°C° 0 mm 2 m/S 667 mmHg 63%
    23:00 +17°C° 0 mm 2 m/S 666 mmHg 65%

    24 Juli, Mittwoch

    Zeit Temperatur Niederschläge Wind Luftdruck Luftfeuchtigkeit
    00:00 +17°C° 0 mm 2 m/S 666 mmHg 67%
    01:00 +16°C° 0 mm 2 m/S 666 mmHg 68%
    02:00 +16°C° 0 mm 2 m/S 666 mmHg 71%
    03:00 +15°C° 0 mm 2 m/S 666 mmHg 73%
    04:00 +15°C° 0 mm 2 m/S 665 mmHg 75%
    05:00 +16°C° 0 mm 2 m/S 666 mmHg 71%
    06:00 +18°C° 0 mm 2 m/S 666 mmHg 67%
    07:00 +19°C° 0 mm 2 m/S 667 mmHg 62%
    08:00 +21°C° 0 mm 2 m/S 668 mmHg 56%
    09:00 +24°C° 0 mm 2 m/S 668 mmHg 49%
    10:00 +25°C° 0 mm 2 m/S 669 mmHg 42%
    11:00 +26°C° 0 mm 2 m/S 669 mmHg 41%
    12:00 +27°C° 0 mm 2 m/S 669 mmHg 39%
    13:00 +28°C° 0 mm 2 m/S 669 mmHg 37%
    14:00 +28°C° 0 mm 2 m/S 669 mmHg 39%
    15:00 +27°C° 0 mm 2 m/S 669 mmHg 41%
    16:00 +26°C° 0 mm 2 m/S 668 mmHg 44%
    17:00 +25°C° 0 mm 2 m/S 668 mmHg 50%
    18:00 +23°C° 0 mm 2 m/S 668 mmHg 56%
    19:00 +20°C° 0 mm 2 m/S 667 mmHg 63%
    20:00 +19°C° 0 mm 2 m/S 667 mmHg 64%
    21:00 +18°C° 0 mm 2 m/S 667 mmHg 66%
    22:00 +19°C° 0 mm 1 m/S 668 mmHg 68%
    23:00 +18°C° 0 mm 1 m/S 667 mmHg 68%

    25 Juli, Donnerstag

    Zeit Temperatur Niederschläge Wind Luftdruck Luftfeuchtigkeit
    00:00 +18°C° 0 mm 1 m/S 667 mmHg 69%
    01:00 +16°C° 0 mm 1 m/S 667 mmHg 69%
    02:00 +16°C° 0 mm 1 m/S 667 mmHg 70%
    03:00 +16°C° 0 mm 1 m/S 667 mmHg 71%
    04:00 +16°C° 0 mm 2 m/S 667 mmHg 72%
    05:00 +18°C° 0 mm 1 m/S 668 mmHg 68%
    06:00 +20°C° 0 mm 1 m/S 668 mmHg 64%
    07:00 +22°C° 0 mm 1 m/S 669 mmHg 59%
    08:00 +23°C° 0 mm 1 m/S 669 mmHg 54%
    09:00 +25°C° 0 mm 1 m/S 670 mmHg 49%
    10:00 +27°C° 0 mm 1 m/S 671 mmHg 44%
    11:00 +27°C° 0 mm 1 m/S 670 mmHg 43%
    12:00 +27°C° 0 mm 1 m/S 670 mmHg 42%
    13:00 +28°C° 0 mm 1 m/S 670 mmHg 40%
    14:00 +27°C° 0 mm 2 m/S 670 mmHg 44%
    15:00 +27°C° 0 mm 2 m/S 669 mmHg 47%
    16:00 +26°C° 0 mm 2 m/S 669 mmHg 51%
    17:00 +24°C° 0 mm 2 m/S 669 mmHg 57%
    18:00 +23°C° 0 mm 2 m/S 668 mmHg 62%
    19:00 +20°C° 0 mm 2 m/S 668 mmHg 68%
    20:00 +20°C° 0 mm 1 m/S 668 mmHg 70%
    21:00 +19°C° 0 mm 1 m/S 668 mmHg 72%
    22:00 +18°C° 0 mm 1 m/S 668 mmHg 74%
    23:00 +18°C° 0 mm 1 m/S 668 mmHg 73%

    26 Juli, Freitag

    Zeit Temperatur Niederschläge Wind Luftdruck Luftfeuchtigkeit
    00:00 +18°C° 0 mm 1 m/S 668 mmHg 73%
    01:00 +18°C° 0 mm 1 m/S 667 mmHg 72%
    02:00 +16°C° 0 mm 1 m/S 667 mmHg 72%
    03:00 +16°C° 0 mm 1 m/S 667 mmHg 72%
    04:00 +16°C° 0 mm 1 m/S 667 mmHg 71%
    05:00 +19°C° 0 mm 1 m/S 668 mmHg 66%
    06:00 +21°C° 0 mm 1 m/S 668 mmHg 61%
    07:00 +23°C° 0 mm 1 m/S 669 mmHg 56%
    08:00 +24°C° 0 mm 1 m/S 669 mmHg 51%
    09:00 +26°C° 0 mm 1 m/S 670 mmHg 45%
    10:00 +26°C° 0 mm 0 m/S 670 mmHg 40%
    11:00 +28°C° 0 mm 1 m/S 670 mmHg 40%
    12:00 +28°C° 0 mm 1 m/S 670 mmHg 40%
    13:00 +28°C° 0 mm 1 m/S 670 mmHg 40%
    14:00 +27°C° 0 mm 2 m/S 669 mmHg 44%
    15:00 +27°C° 0 mm 2 m/S 669 mmHg 48%
    16:00 +26°C° 0 mm 2 m/S 668 mmHg 52%
    17:00 +24°C° 0 mm 2 m/S 668 mmHg 58%
    18:00 +23°C° 0 mm 2 m/S 667 mmHg 64%
    19:00 +21°C° 0 mm 1 m/S 667 mmHg 70%
    20:00 +20°C° 0 mm 1 m/S 667 mmHg 72%
    21:00 +20°C° 0 mm 1 m/S 667 mmHg 74%
    22:00 +17°C° 0 mm 0 m/S 667 mmHg 77%
    23:00 +16°C° 0 mm 0 m/S 666 mmHg 77%
    Mehr zeigen